Home   Weather   Ringgold   Past weeks
Flag for USA

Past Weather in Ringgold, Georgia, USA — Yesterday and Last 2 Weeks

Now
51 °F

Clear.


Feels Like: 51 °F
Forecast: 74 / 42 °F
Wind: No wind

Location: Lovell Field

Current Time: Oct 14, 2019 at 5:05:00 am

Latest Report: Oct 14, 2019 at 3:53 am


Visibility: 10 mi

Pressure: 30.08 "Hg

Humidity: 89%

Dew Point: 48 °F

Location of RinggoldLocation

Past Weather in Ringgold — Graph

°F

Ringgold Temperature Yesterday

Maximum temperature yesterday: 74 °F (at 3:53 pm)
Minimum temperature yesterday: 49 °F (at 4:53 am)
Average temperature yesterday: 61 °F

High & Low Weather Summary for the Past Weeks

 TemperatureHumidityPressure
High99 °F (Oct 2, 3:53 pm)97% (Oct 10, 5:53 am)30.22 "Hg (Oct 10, 5:53 am)
Low49 °F (Oct 13, 4:53 am)25% (Oct 3, 5:53 pm)29.92 "Hg (Oct 2, 5:53 pm)
Average74 °F66%30.07 "Hg
* Reported Sep 29 3:53 am — Oct 14 3:53 am, Ringgold. Weather by CustomWeather, © 2019

Note: Actual official high and low records may vary slightly from our data, if they occured in-between our weather recording intervals... More about our weather records

Advertising

Ringgold Weather History for the Previous 24 Hours

Scroll right to see more
 ConditionsComfort  
Time TempWeatherWind HumidityBarometerVisibility
3:53 am
Mon, Oct 14
51 °FClear.No wind89%30.08 "Hg10 mi
2:53 am51 °FClear.No wind92%30.08 "Hg10 mi
1:53 am52 °FClear.No wind93%30.06 "Hg10 mi
12:53 am57 °FClear.No wind78%30.06 "Hg10 mi
11:53 pm
Sun, Oct 13
59 °FPassing clouds.7 mph78%30.07 "Hg10 mi
10:53 pm60 °FPassing clouds.No wind78%30.06 "Hg10 mi
9:53 pm61 °FPassing clouds.6 mph75%30.05 "Hg10 mi
8:53 pm63 °FPassing clouds.3 mph68%30.04 "Hg10 mi
7:53 pm67 °FPartly cloudy.8 mph59%30.02 "Hg10 mi
6:53 pm68 °FBroken clouds.6 mph53%30.00 "Hg10 mi
5:53 pm71 °FBroken clouds.6 mph35%30.01 "Hg10 mi
4:53 pm71 °FBroken clouds.10 mph49%30.00 "Hg10 mi
3:53 pm74 °FPartly sunny.7 mph28%29.98 "Hg10 mi
2:53 pm73 °FBroken clouds.3 mph36%29.99 "Hg10 mi
1:53 pm73 °FBroken clouds.No wind34%30.02 "Hg10 mi
12:53 pm70 °FScattered clouds.No wind44%30.05 "Hg10 mi
11:53 am65 °FScattered clouds.No wind54%30.06 "Hg10 mi
10:53 am60 °FScattered clouds.No wind62%30.09 "Hg10 mi
9:53 am57 °FScattered clouds.No wind67%30.09 "Hg10 mi
8:53 am53 °FPartly sunny.No wind74%30.09 "Hg10 mi
7:53 am51 °FBroken clouds.No wind83%30.08 "Hg10 mi
6:53 am50 °FPassing clouds.3 mph83%30.06 "Hg10 mi
5:53 am51 °FPassing clouds.No wind77%30.05 "Hg10 mi
Weather by CustomWeather, © 2019

See weather overview